sat.trackr.live / text

‹ back to catalog

STARLINK-11311 [DTC]

NORAD 61253 · 2024-175L

PAYLOAD ACTIVE UNKNOWN

§ Identity

Operator
Country
US
Launch date
2024-09-25
Launch site
AFWTR
Launch vehicle
Mass (kg)
RCS (m²)

Purposes: comms

External: N2YO · Heavens-Above · Gunter

§ Orbital elements

Epoch: 2026-05-24T23:08:35.240064Z

Period
91.74 min
Inclination
53.1595°
Eccentricity
0.0000907
Mean motion
15.69707583 rev/d
Perigee alt
359.1 km
Apogee alt
360.3 km
Semi-major
6,737.9 km
B*
1.1935e-5
RAAN
40.4478°
Arg perigee
87.7873°
Mean anomaly
272.3249°
Rev number
9,655

§ Raw data

STARLINK-11311 [DTC]1 61253U 24175L   26144.96429676  .00000858  00000+0  11935-4 0  99952 61253  53.1595  40.4478 0000907  87.7873 272.3249 15.69707583 96555

JSON: /api/v1/satellites/61253 · /tle

For live sub-satellite position, see the globe view (requires WebGL).

§ Visibility from observer

Set your observer location to see the next 7 days of passes ≥ 10°. The values pass through the URL so the page stays shareable.

No JS? Fill the form by hand. The geolocation button needs JavaScript.